Time,TemperatureF,DewpointF,PressureIn,WindDirection,WindDirectionDegrees,WindSpeedMPH,WindSpeedGustMPH,Humidity,HourlyPrecipIn,Conditions,Clouds,dailyrainin,SoftwareType,DateUTC
2013-01-13 00:05:00,67.4,65.0,30.07,ESE,120,2.0,3.0,92,0.00,,,0.00,Wunderground v.1.15,2013-01-13 05:05:00,
2013-01-13 00:10:00,67.3,64.9,30.07,ESE,119,3.0,3.0,92,0.00,,,0.00,Wunderground v.1.15,2013-01-13 05:10:00,
2013-01-13 00:15:00,67.1,64.7,30.07,ESE,120,2.0,3.0,92,0.00,,,0.00,Wunderground v.1.15,2013-01-13 05:15:00,
2013-01-13 00:20:00,67.0,64.6,30.08,ESE,119,1.0,1.0,92,0.00,,,0.00,Wunderground v.1.15,2013-01-13 05:20:00,
2013-01-13 00:25:00,66.8,64.4,30.08,ESE,120,1.0,1.0,92,0.00,,,0.00,Wunderground v.1.15,2013-01-13 05:25:00,
2013-01-13 00:30:00,66.7,64.6,30.08,ESE,120,1.0,2.0,93,0.00,,,0.00,Wunderground v.1.15,2013-01-13 05:30:00,
2013-01-13 00:35:00,66.6,64.5,30.08,ESE,120,1.0,2.0,93,0.00,,,0.00,Wunderground v.1.15,2013-01-13 05:35:00,
2013-01-13 00:40:00,66.5,64.4,30.07,ESE,120,1.0,2.0,93,0.00,,,0.00,Wunderground v.1.15,2013-01-13 05:40:00,
2013-01-13 00:45:00,66.4,64.3,30.08,ESE,119,2.0,3.0,93,0.00,,,0.00,Wunderground v.1.15,2013-01-13 05:45:00,
2013-01-13 00:50:00,66.3,64.2,30.08,ESE,119,2.0,2.0,93,0.00,,,0.00,Wunderground v.1.15,2013-01-13 05:50:00,
2013-01-13 00:55:00,66.1,64.0,30.08,ESE,119,1.0,2.0,93,0.00,,,0.00,Wunderground v.1.15,2013-01-13 05:55:00,
2013-01-13 01:00:00,65.8,63.7,30.08,ESE,120,0.0,0.0,93,0.00,,,0.00,Wunderground v.1.15,2013-01-13 06:00:00,
2013-01-13 01:05:00,65.3,63.2,30.08,ESE,120,0.0,0.0,93,0.00,,,0.00,Wunderground v.1.15,2013-01-13 06:05:00,
2013-01-13 01:10:00,65.0,62.6,30.08,ESE,119,0.0,0.0,92,0.00,,,0.00,Wunderground v.1.15,2013-01-13 06:10:00,
2013-01-13 01:15:00,64.7,62.6,30.08,ESE,119,0.0,0.0,93,0.00,,,0.00,Wunderground v.1.15,2013-01-13 06:15:00,
2013-01-13 01:20:00,64.2,61.8,30.08,ESE,119,0.0,0.0,92,0.00,,,0.00,Wunderground v.1.15,2013-01-13 06:20:00,
2013-01-13 01:25:00,63.8,61.4,30.08,ESE,119,0.0,0.0,92,0.00,,,0.00,Wunderground v.1.15,2013-01-13 06:25:00,
2013-01-13 01:30:00,63.3,60.9,30.07,ESE,120,0.0,0.0,92,0.00,,,0.00,Wunderground v.1.15,2013-01-13 06:30:00,
2013-01-13 01:35:00,63.0,60.6,30.07,ESE,120,0.0,0.0,92,0.00,,,0.00,Wunderground v.1.15,2013-01-13 06:35:00,
2013-01-13 01:40:00,62.6,60.2,30.07,ESE,119,0.0,0.0,92,0.00,,,0.00,Wunderground v.1.15,2013-01-13 06:40:00,
2013-01-13 01:45:00,62.5,60.1,30.07,ESE,119,0.0,0.0,92,0.00,,,0.00,Wunderground v.1.15,2013-01-13 06:45:00,
2013-01-13 01:50:00,62.4,60.0,30.07,ESE,120,0.0,0.0,92,0.00,,,0.00,Wunderground v.1.15,2013-01-13 06:50:00,
2013-01-13 01:55:00,62.4,60.3,30.07,ESE,120,0.0,0.0,93,0.00,,,0.00,Wunderground v.1.15,2013-01-13 06:55:00,
2013-01-13 02:00:00,62.6,60.5,30.07,ESE,119,0.0,0.0,93,0.00,,,0.00,Wunderground v.1.15,2013-01-13 07:00:00,
2013-01-13 02:05:00,63.2,61.1,30.07,ESE,120,0.0,0.0,93,0.00,,,0.00,Wunderground v.1.15,2013-01-13 07:05:00,
2013-01-13 02:10:00,63.5,61.7,30.07,ESE,119,0.0,0.0,94,0.00,,,0.00,Wunderground v.1.15,2013-01-13 07:10:00,
2013-01-13 02:15:00,63.7,61.9,30.07,ESE,120,0.0,0.0,94,0.00,,,0.00,Wunderground v.1.15,2013-01-13 07:15:00,
2013-01-13 02:20:00,63.6,61.5,30.07,ESE,120,0.0,0.0,93,0.00,,,0.00,Wunderground v.1.15,2013-01-13 07:20:00,
2013-01-13 02:25:00,63.0,60.9,30.07,ESE,120,0.0,0.0,93,0.00,,,0.00,Wunderground v.1.15,2013-01-13 07:25:00,
2013-01-13 02:30:00,62.2,59.8,30.07,ESE,119,0.0,0.0,92,0.00,,,0.00,Wunderground v.1.15,2013-01-13 07:30:00,
2013-01-13 02:35:00,61.4,59.1,30.08,ESE,120,0.0,0.0,92,0.00,,,0.00,Wunderground v.1.15,2013-01-13 07:35:00,
2013-01-13 02:40:00,60.7,58.4,30.08,ESE,120,0.0,0.0,92,0.00,,,0.00,Wunderground v.1.15,2013-01-13 07:40:00,
2013-01-13 02:45:00,60.0,57.7,30.08,ESE,120,0.0,0.0,92,0.00,,,0.00,Wunderground v.1.15,2013-01-13 07:45:00,
2013-01-13 02:50:00,59.5,57.2,30.08,ESE,119,0.0,0.0,92,0.00,,,0.00,Wunderground v.1.15,2013-01-13 07:50:00,
2013-01-13 02:55:00,59.0,57.0,30.08,ESE,119,0.0,0.0,93,0.00,,,0.00,Wunderground v.1.15,2013-01-13 07:55:00,
2013-01-13 03:00:00,58.7,56.4,30.08,ESE,120,0.0,0.0,92,0.00,,,0.00,Wunderground v.1.15,2013-01-13 08:00:00,
2013-01-13 03:05:00,58.1,55.8,30.08,ESE,119,0.0,0.0,92,0.00,,,0.00,Wunderground v.1.15,2013-01-13 08:05:00,
2013-01-13 03:10:00,58.0,56.0,30.08,ESE,119,0.0,0.0,93,0.00,,,0.00,Wunderground v.1.15,2013-01-13 08:10:00,
2013-01-13 03:15:00,58.1,56.1,30.08,ESE,119,0.0,0.0,93,0.00,,,0.00,Wunderground v.1.15,2013-01-13 08:15:00,
2013-01-13 03:20:00,58.0,56.0,30.07,ESE,119,0.0,0.0,93,0.00,,,0.00,Wunderground v.1.15,2013-01-13 08:20:00,
2013-01-13 03:25:00,57.9,55.9,30.07,ESE,119,0.0,0.0,93,0.00,,,0.00,Wunderground v.1.15,2013-01-13 08:25:00,
2013-01-13 03:30:00,57.7,55.7,30.07,ESE,119,0.0,0.0,93,0.00,,,0.00,Wunderground v.1.15,2013-01-13 08:30:00,
2013-01-13 03:35:00,57.5,55.5,30.07,ESE,120,0.0,0.0,93,0.00,,,0.00,Wunderground v.1.15,2013-01-13 08:35:00,
2013-01-13 03:40:00,57.2,55.2,30.06,ESE,119,0.0,0.0,93,0.00,,,0.00,Wunderground v.1.15,2013-01-13 08:40:00,
2013-01-13 03:45:00,56.9,54.9,30.06,ESE,120,0.0,0.0,93,0.00,,,0.00,Wunderground v.1.15,2013-01-13 08:45:00,
2013-01-13 03:50:00,56.6,54.6,30.06,ESE,119,0.0,0.0,93,0.00,,,0.00,Wunderground v.1.15,2013-01-13 08:50:00,
2013-01-13 03:55:00,56.3,54.3,30.06,ESE,119,0.0,0.0,93,0.00,,,0.00,Wunderground v.1.15,2013-01-13 08:55:00,
2013-01-13 04:05:00,55.7,53.7,30.06,ESE,119,0.0,0.0,93,0.00,,,0.00,Wunderground v.1.15,2013-01-13 09:05:00,
2013-01-13 04:15:00,55.7,53.7,30.05,ESE,120,0.0,0.0,93,0.00,,,0.00,Wunderground v.1.15,2013-01-13 09:15:00,
2013-01-13 04:20:00,55.6,53.6,30.05,ESE,119,0.0,0.0,93,0.00,,,0.00,Wunderground v.1.15,2013-01-13 09:20:00,
2013-01-13 04:25:00,55.6,53.6,30.05,ESE,120,0.0,0.0,93,0.00,,,0.00,Wunderground v.1.15,2013-01-13 09:25:00,
2013-01-13 04:30:00,55.8,53.8,30.05,ESE,119,0.0,0.0,93,0.00,,,0.00,Wunderground v.1.15,2013-01-13 09:30:00,
2013-01-13 04:35:00,55.7,53.7,30.05,ESE,120,0.0,0.0,93,0.00,,,0.00,Wunderground v.1.15,2013-01-13 09:35:00,
2013-01-13 04:40:00,55.4,53.4,30.05,ESE,119,0.0,0.0,93,0.00,,,0.00,Wunderground v.1.15,2013-01-13 09:40:00,
2013-01-13 04:45:00,55.1,53.1,30.05,ESE,119,0.0,0.0,93,0.00,,,0.00,Wunderground v.1.15,2013-01-13 09:45:00,
2013-01-13 04:50:00,54.8,52.8,30.05,ESE,120,0.0,0.0,93,0.00,,,0.00,Wunderground v.1.15,2013-01-13 09:50:00,
2013-01-13 04:55:00,54.6,52.6,30.05,ESE,119,0.0,0.0,93,0.00,,,0.00,Wunderground v.1.15,2013-01-13 09:55:00,
2013-01-13 05:00:00,54.4,52.4,30.05,ESE,120,0.0,0.0,93,0.00,,,0.00,Wunderground v.1.15,2013-01-13 10:00:00,
2013-01-13 05:05:00,54.2,52.2,30.05,ESE,119,0.0,0.0,93,0.00,,,0.00,Wunderground v.1.15,2013-01-13 10:05:00,
2013-01-13 05:10:00,54.0,52.0,30.05,ESE,120,0.0,0.0,93,0.00,,,0.00,Wunderground v.1.15,2013-01-13 10:10:00,
2013-01-13 05:15:00,53.9,51.9,30.05,ESE,119,0.0,0.0,93,0.00,,,0.00,Wunderground v.1.15,2013-01-13 10:15:00,
2013-01-13 05:20:00,53.6,51.6,30.05,ESE,119,0.0,0.0,93,0.00,,,0.00,Wunderground v.1.15,2013-01-13 10:20:00,
2013-01-13 05:25:00,53.5,51.5,30.05,ESE,119,0.0,0.0,93,0.00,,,0.00,Wunderground v.1.15,2013-01-13 10:25:00,
2013-01-13 05:30:00,53.3,51.3,30.05,ESE,119,0.0,0.0,93,0.00,,,0.00,Wunderground v.1.15,2013-01-13 10:30:00,
2013-01-13 05:35:00,53.3,51.3,30.05,ESE,120,0.0,0.0,93,0.00,,,0.00,Wunderground v.1.15,2013-01-13 10:35:00,
2013-01-13 05:40:00,53.3,51.6,30.06,ESE,119,0.0,0.0,94,0.00,,,0.00,Wunderground v.1.15,2013-01-13 10:40:00,
2013-01-13 05:50:00,53.2,51.5,30.06,ESE,119,0.0,0.0,94,0.00,,,0.00,Wunderground v.1.15,2013-01-13 10:50:00,
2013-01-13 05:55:00,53.4,51.7,30.06,ESE,119,0.0,0.0,94,0.00,,,0.00,Wunderground v.1.15,2013-01-13 10:55:00,
2013-01-13 06:00:00,53.7,52.0,30.06,ESE,119,0.0,0.0,94,0.00,,,0.00,Wunderground v.1.15,2013-01-13 11:00:00,
2013-01-13 06:05:00,53.8,52.1,30.05,ESE,119,0.0,0.0,94,0.00,,,0.00,Wunderground v.1.15,2013-01-13 11:05:00,
2013-01-13 06:10:00,53.7,52.0,30.06,ESE,119,0.0,0.0,94,0.00,,,0.00,Wunderground v.1.15,2013-01-13 11:10:00,
2013-01-13 06:15:00,53.5,51.8,30.06,ESE,120,0.0,0.0,94,0.00,,,0.00,Wunderground v.1.15,2013-01-13 11:15:00,
2013-01-13 06:20:00,53.4,51.7,30.06,ESE,120,0.0,0.0,94,0.00,,,0.00,Wunderground v.1.15,2013-01-13 11:20:00,
2013-01-13 06:25:00,53.3,51.6,30.06,ESE,119,0.0,0.0,94,0.00,,,0.00,Wunderground v.1.15,2013-01-13 11:25:00,
2013-01-13 06:30:00,53.2,51.5,30.06,ESE,120,0.0,0.0,94,0.00,,,0.00,Wunderground v.1.15,2013-01-13 11:30:00,
2013-01-13 06:35:00,53.1,51.4,30.06,ESE,119,0.0,0.0,94,0.00,,,0.00,Wunderground v.1.15,2013-01-13 11:35:00,
2013-01-13 06:40:00,53.1,51.4,30.06,ESE,120,0.0,0.0,94,0.00,,,0.00,Wunderground v.1.15,2013-01-13 11:40:00,
2013-01-13 06:45:00,53.1,51.4,30.06,ESE,119,0.0,0.0,94,0.00,,,0.00,Wunderground v.1.15,2013-01-13 11:45:00,
2013-01-13 06:50:00,53.2,51.5,30.06,ESE,120,0.0,0.0,94,0.00,,,0.01,Wunderground v.1.15,2013-01-13 11:50:00,
2013-01-13 06:55:00,53.2,51.5,30.06,ESE,119,0.0,0.0,94,0.00,,,0.01,Wunderground v.1.15,2013-01-13 11:55:00,
2013-01-13 07:00:00,53.2,51.5,30.06,ESE,120,0.0,0.0,94,0.00,,,0.01,Wunderground v.1.15,2013-01-13 12:00:00,
2013-01-13 07:05:00,53.3,51.6,30.06,ESE,120,0.0,0.0,94,0.00,,,0.01,Wunderground v.1.15,2013-01-13 12:05:00,
2013-01-13 07:10:00,53.2,51.5,30.06,ESE,119,0.0,0.0,94,0.00,,,0.01,Wunderground v.1.15,2013-01-13 12:10:00,
2013-01-13 07:15:00,53.1,51.4,30.06,ESE,120,0.0,0.0,94,0.00,,,0.01,Wunderground v.1.15,2013-01-13 12:15:00,
2013-01-13 07:25:00,52.8,51.1,30.07,ESE,119,0.0,0.0,94,0.00,,,0.01,Wunderground v.1.15,2013-01-13 12:25:00,
2013-01-13 07:30:00,52.7,51.0,30.06,ESE,119,0.0,0.0,94,0.00,,,0.01,Wunderground v.1.15,2013-01-13 12:30:00,
2013-01-13 07:35:00,52.6,50.9,30.07,ESE,120,0.0,0.0,94,0.00,,,0.01,Wunderground v.1.15,2013-01-13 12:35:00,
2013-01-13 07:40:00,52.7,51.0,30.06,ESE,119,0.0,0.0,94,0.00,,,0.01,Wunderground v.1.15,2013-01-13 12:40:00,
2013-01-13 07:45:00,52.9,51.2,30.07,ESE,119,0.0,0.0,94,0.00,,,0.01,Wunderground v.1.15,2013-01-13 12:45:00,
2013-01-13 07:50:00,53.2,51.5,30.07,ESE,120,0.0,0.0,94,0.00,,,0.01,Wunderground v.1.15,2013-01-13 12:50:00,
2013-01-13 07:55:00,53.8,52.1,30.07,ESE,119,0.0,0.0,94,0.00,,,0.01,Wunderground v.1.15,2013-01-13 12:55:00,
2013-01-13 08:00:00,54.6,53.2,30.07,ESE,120,0.0,0.0,95,0.00,,,0.01,Wunderground v.1.15,2013-01-13 13:00:00,
2013-01-13 08:05:00,55.4,54.0,30.07,ESE,119,0.0,0.0,95,0.00,,,0.01,Wunderground v.1.15,2013-01-13 13:05:00,
2013-01-13 08:15:00,59.0,57.9,30.07,ESE,119,0.0,0.0,96,0.00,,,0.01,Wunderground v.1.15,2013-01-13 13:15:00,
2013-01-13 08:20:00,61.3,60.2,30.07,ESE,120,0.0,0.0,96,0.00,,,0.01,Wunderground v.1.15,2013-01-13 13:20:00,
2013-01-13 08:25:00,62.6,61.4,30.08,ESE,120,0.0,0.0,96,0.00,,,0.01,Wunderground v.1.15,2013-01-13 13:25:00,
2013-01-13 08:30:00,63.5,62.3,30.08,ESE,120,0.0,0.0,96,0.00,,,0.01,Wunderground v.1.15,2013-01-13 13:30:00,
2013-01-13 08:35:00,64.3,63.1,30.08,ESE,122,0.0,0.0,96,0.00,,,0.01,Wunderground v.1.15,2013-01-13 13:35:00,
2013-01-13 08:40:00,64.9,63.4,30.08,ESE,122,0.0,0.0,95,0.00,,,0.01,Wunderground v.1.15,2013-01-13 13:40:00,
2013-01-13 08:45:00,65.4,63.9,30.09,ESE,122,0.0,0.0,95,0.00,,,0.01,Wunderground v.1.15,2013-01-13 13:45:00,
2013-01-13 08:50:00,65.9,64.4,30.09,ESE,122,0.0,0.0,95,0.00,,,0.01,Wunderground v.1.15,2013-01-13 13:50:00,
2013-01-13 08:55:00,66.6,65.1,30.09,ESE,122,0.0,0.0,95,0.00,,,0.01,Wunderground v.1.15,2013-01-13 13:55:00,
2013-01-13 09:00:00,67.2,65.7,30.10,ESE,122,1.0,3.0,95,0.00,,,0.01,Wunderground v.1.15,2013-01-13 14:00:00,
2013-01-13 09:05:00,67.9,66.4,30.10,ESE,122,1.0,3.0,95,0.00,,,0.01,Wunderground v.1.15,2013-01-13 14:05:00,
2013-01-13 09:10:00,68.6,66.8,30.10,ESE,122,2.0,3.0,94,0.00,,,0.01,Wunderground v.1.15,2013-01-13 14:10:00,
2013-01-13 09:15:00,69.1,67.3,30.11,ESE,122,2.0,3.0,94,0.00,,,0.01,Wunderground v.1.15,2013-01-13 14:15:00,
2013-01-13 09:20:00,69.5,67.4,30.12,ESE,122,2.0,5.0,93,0.00,,,0.01,Wunderground v.1.15,2013-01-13 14:20:00,
2013-01-13 09:25:00,69.9,67.5,30.12,ESE,122,3.0,5.0,92,0.00,,,0.01,Wunderground v.1.15,2013-01-13 14:25:00,
2013-01-13 09:30:00,70.5,68.1,30.12,ESE,122,3.0,3.0,92,0.00,,,0.01,Wunderground v.1.15,2013-01-13 14:30:00,
2013-01-13 09:35:00,71.1,68.3,30.12,ESE,122,3.0,3.0,91,0.00,,,0.01,Wunderground v.1.15,2013-01-13 14:35:00,
2013-01-13 09:40:00,71.3,68.2,30.13,SSE,148,4.0,4.0,90,0.00,,,0.01,Wunderground v.1.15,2013-01-13 14:40:00,
2013-01-13 09:45:00,71.7,68.3,30.13,SSE,148,5.0,5.0,89,0.00,,,0.01,Wunderground v.1.15,2013-01-13 14:45:00,
2013-01-13 09:50:00,72.1,68.3,30.13,SE,144,4.0,4.0,88,0.00,,,0.01,Wunderground v.1.15,2013-01-13 14:50:00,
2013-01-13 09:55:00,72.4,68.3,30.13,SE,144,3.0,5.0,87,0.00,,,0.01,Wunderground v.1.15,2013-01-13 14:55:00,
2013-01-13 10:00:00,72.9,68.5,30.13,SE,144,3.0,6.0,86,0.00,,,0.01,Wunderground v.1.15,2013-01-13 15:00:00,
2013-01-13 10:05:00,73.2,68.4,30.13,SE,139,4.0,6.0,85,0.00,,,0.01,Wunderground v.1.15,2013-01-13 15:05:00,
2013-01-13 10:10:00,73.3,68.2,30.14,SE,129,5.0,5.0,84,0.00,,,0.01,Wunderground v.1.15,2013-01-13 15:10:00,
2013-01-13 10:15:00,73.4,68.3,30.14,SE,129,5.0,5.0,84,0.00,,,0.01,Wunderground v.1.15,2013-01-13 15:15:00,
2013-01-13 10:20:00,73.8,68.7,30.14,SE,128,5.0,5.0,84,0.00,,,0.01,Wunderground v.1.15,2013-01-13 15:20:00,
2013-01-13 10:25:00,74.2,68.7,30.14,ESE,121,4.0,7.0,83,0.00,,,0.01,Wunderground v.1.15,2013-01-13 15:25:00,
2013-01-13 10:30:00,74.8,68.9,30.14,ESE,113,4.0,6.0,82,0.00,,,0.01,Wunderground v.1.15,2013-01-13 15:30:00,
2013-01-13 10:35:00,75.0,68.8,30.14,ESE,114,5.0,6.0,81,0.00,,,0.01,Wunderground v.1.15,2013-01-13 15:35:00,
2013-01-13 10:40:00,75.1,68.9,30.14,SE,130,5.0,5.0,81,0.00,,,0.01,Wunderground v.1.15,2013-01-13 15:40:00,
2013-01-13 10:45:00,75.2,69.0,30.13,SSE,150,6.0,7.0,81,0.00,,,0.01,Wunderground v.1.15,2013-01-13 15:45:00,
2013-01-13 10:50:00,75.5,69.3,30.14,SSE,157,7.0,7.0,81,0.00,,,0.01,Wunderground v.1.15,2013-01-13 15:50:00,
2013-01-13 10:55:00,75.8,69.2,30.13,SSE,168,6.0,7.0,80,0.00,,,0.01,Wunderground v.1.15,2013-01-13 15:55:00,
2013-01-13 11:00:00,76.2,69.6,30.14,SSE,165,5.0,5.0,80,0.00,,,0.01,Wunderground v.1.15,2013-01-13 16:00:00,
2013-01-13 11:05:00,76.6,69.6,30.13,SSE,161,5.0,5.0,79,0.00,,,0.01,Wunderground v.1.15,2013-01-13 16:05:00,
2013-01-13 11:10:00,76.9,69.5,30.13,SSE,159,5.0,10.0,78,0.00,,,0.01,Wunderground v.1.15,2013-01-13 16:10:00,
2013-01-13 11:15:00,77.1,69.3,30.13,SSE,159,5.0,10.0,77,0.00,,,0.01,Wunderground v.1.15,2013-01-13 16:15:00,
2013-01-13 11:20:00,77.3,69.5,30.13,SSE,164,5.0,8.0,77,0.00,,,0.01,Wunderground v.1.15,2013-01-13 16:20:00,
2013-01-13 11:25:00,77.5,69.3,30.13,SSE,167,4.0,8.0,76,0.00,,,0.01,Wunderground v.1.15,2013-01-13 16:25:00,
2013-01-13 11:30:00,77.9,69.7,30.12,SSE,159,4.0,4.0,76,0.00,,,0.01,Wunderground v.1.15,2013-01-13 16:30:00,
2013-01-13 11:35:00,77.6,69.0,30.12,SSE,158,4.0,4.0,75,0.00,,,0.01,Wunderground v.1.15,2013-01-13 16:35:00,
2013-01-13 11:40:00,77.6,69.0,30.11,SSE,158,3.0,5.0,75,0.00,,,0.01,Wunderground v.1.15,2013-01-13 16:40:00,
2013-01-13 11:45:00,77.9,69.3,30.11,SSE,160,3.0,5.0,75,0.00,,,0.01,Wunderground v.1.15,2013-01-13 16:45:00,
2013-01-13 11:50:00,78.1,69.1,30.11,SSE,156,5.0,5.0,74,0.00,,,0.01,Wunderground v.1.15,2013-01-13 16:50:00,
2013-01-13 11:55:00,78.2,68.8,30.11,SE,144,3.0,5.0,73,0.00,,,0.01,Wunderground v.1.15,2013-01-13 16:55:00,
2013-01-13 12:00:00,78.3,69.3,30.11,SE,144,2.0,2.0,74,0.00,,,0.01,Wunderground v.1.15,2013-01-13 17:00:00,
2013-01-13 12:05:00,78.7,68.9,30.10,SSE,161,4.0,4.0,72,0.00,,,0.01,Wunderground v.1.15,2013-01-13 17:05:00,
2013-01-13 12:10:00,79.0,68.4,30.10,SSE,161,4.0,4.0,70,0.00,,,0.01,Wunderground v.1.15,2013-01-13 17:10:00,
2013-01-13 12:15:00,78.9,68.7,30.10,SSE,160,3.0,4.0,71,0.00,,,0.01,Wunderground v.1.15,2013-01-13 17:15:00,
2013-01-13 12:20:00,78.8,68.2,30.09,SSE,156,4.0,5.0,70,0.00,,,0.01,Wunderground v.1.15,2013-01-13 17:20:00,
2013-01-13 12:25:00,78.7,68.9,30.09,SE,136,4.0,5.0,72,0.00,,,0.01,Wunderground v.1.15,2013-01-13 17:25:00,
2013-01-13 12:30:00,78.7,68.5,30.08,SE,134,5.0,5.0,71,0.00,,,0.01,Wunderground v.1.15,2013-01-13 17:30:00,
2013-01-13 12:35:00,78.9,68.7,30.08,SE,134,4.0,5.0,71,0.00,,,0.01,Wunderground v.1.15,2013-01-13 17:35:00,
2013-01-13 12:40:00,79.1,68.9,30.08,SE,134,4.0,4.0,71,0.00,,,0.01,Wunderground v.1.15,2013-01-13 17:40:00,
2013-01-13 12:45:00,79.1,68.5,30.08,ESE,121,4.0,5.0,70,0.00,,,0.01,Wunderground v.1.15,2013-01-13 17:45:00,
2013-01-13 12:50:00,79.2,68.1,30.08,SE,128,5.0,6.0,69,0.00,,,0.01,Wunderground v.1.15,2013-01-13 17:50:00,
2013-01-13 12:55:00,79.4,68.3,30.07,SE,125,4.0,6.0,69,0.00,,,0.01,Wunderground v.1.15,2013-01-13 17:55:00,
2013-01-13 13:05:00,78.8,66.9,30.07,East,84,2.0,4.0,67,0.00,,,0.01,Wunderground v.1.15,2013-01-13 18:05:00,
2013-01-13 13:10:00,79.2,66.9,30.06,ESE,123,4.0,4.0,66,0.00,,,0.01,Wunderground v.1.15,2013-01-13 18:10:00,
2013-01-13 13:15:00,79.3,67.0,30.06,ESE,113,5.0,5.0,66,0.00,,,0.01,Wunderground v.1.15,2013-01-13 18:15:00,
2013-01-13 13:20:00,79.5,67.1,30.05,ESE,102,4.0,4.0,66,0.00,,,0.01,Wunderground v.1.15,2013-01-13 18:20:00,
2013-01-13 13:25:00,80.0,67.2,30.05,ESE,102,2.0,9.0,65,0.00,,,0.01,Wunderground v.1.15,2013-01-13 18:25:00,
2013-01-13 13:30:00,80.2,67.8,30.05,SE,134,3.0,4.0,66,0.00,,,0.01,Wunderground v.1.15,2013-01-13 18:30:00,
2013-01-13 13:40:00,80.8,67.9,30.05,SE,144,3.0,5.0,65,0.00,,,0.01,Wunderground v.1.15,2013-01-13 18:40:00,
2013-01-13 13:45:00,81.1,67.8,30.05,SE,128,4.0,6.0,64,0.00,,,0.01,Wunderground v.1.15,2013-01-13 18:45:00,
2013-01-13 13:50:00,81.1,67.8,30.05,SE,132,5.0,7.0,64,0.00,,,0.01,Wunderground v.1.15,2013-01-13 18:50:00,
2013-01-13 13:55:00,80.7,66.9,30.04,ESE,123,5.0,7.0,63,0.00,,,0.01,Wunderground v.1.15,2013-01-13 18:55:00,
2013-01-13 14:00:00,80.2,66.9,30.04,ESE,123,4.0,4.0,64,0.00,,,0.01,Wunderground v.1.15,2013-01-13 19:00:00,
2013-01-13 14:05:00,79.7,66.4,30.04,ESE,123,3.0,4.0,64,0.00,,,0.01,Wunderground v.1.15,2013-01-13 19:05:00,
2013-01-13 14:10:00,79.9,67.1,30.04,ESE,123,2.0,5.0,65,0.00,,,0.01,Wunderground v.1.15,2013-01-13 19:10:00,
2013-01-13 14:15:00,80.0,66.3,30.04,SE,128,3.0,5.0,63,0.00,,,0.01,Wunderground v.1.15,2013-01-13 19:15:00,
2013-01-13 14:20:00,79.7,66.4,30.04,SE,128,5.0,5.0,64,0.00,,,0.01,Wunderground v.1.15,2013-01-13 19:20:00,
2013-01-13 14:25:00,79.3,66.5,30.04,SE,132,4.0,6.0,65,0.00,,,0.01,Wunderground v.1.15,2013-01-13 19:25:00,
2013-01-13 14:30:00,79.5,66.3,30.04,SE,130,4.0,4.0,64,0.00,,,0.01,Wunderground v.1.15,2013-01-13 19:30:00,
2013-01-13 14:35:00,79.6,66.3,30.05,SE,129,4.0,4.0,64,0.00,,,0.01,Wunderground v.1.15,2013-01-13 19:35:00,
2013-01-13 14:40:00,79.9,67.1,30.05,SE,130,3.0,3.0,65,0.00,,,0.01,Wunderground v.1.15,2013-01-13 19:40:00,
2013-01-13 14:45:00,80.1,66.8,30.05,SE,132,3.0,4.0,64,0.00,,,0.01,Wunderground v.1.15,2013-01-13 19:45:00,
2013-01-13 14:50:00,80.2,66.9,30.05,SE,130,3.0,4.0,64,0.00,,,0.01,Wunderground v.1.15,2013-01-13 19:50:00,
2013-01-13 14:55:00,80.4,66.6,30.05,SE,127,3.0,4.0,63,0.00,,,0.01,Wunderground v.1.15,2013-01-13 19:55:00,
2013-01-13 15:00:00,80.3,66.6,30.05,SE,126,4.0,4.0,63,0.00,,,0.01,Wunderground v.1.15,2013-01-13 20:00:00,
2013-01-13 15:05:00,80.2,66.5,30.05,SE,133,5.0,5.0,63,0.00,,,0.01,Wunderground v.1.15,2013-01-13 20:05:00,
2013-01-13 15:10:00,80.2,66.0,30.05,SE,134,4.0,6.0,62,0.00,,,0.01,Wunderground v.1.15,2013-01-13 20:10:00,
2013-01-13 15:15:00,80.2,66.9,30.06,SE,140,4.0,6.0,64,0.00,,,0.01,Wunderground v.1.15,2013-01-13 20:15:00,
2013-01-13 15:25:00,79.9,66.6,30.06,SE,141,4.0,4.0,64,0.00,,,0.01,Wunderground v.1.15,2013-01-13 20:25:00,
2013-01-13 15:30:00,79.7,66.4,30.06,SE,142,5.0,5.0,64,0.00,,,0.01,Wunderground v.1.15,2013-01-13 20:30:00,
2013-01-13 15:35:00,79.4,66.2,30.06,SE,142,4.0,5.0,64,0.00,,,0.01,Wunderground v.1.15,2013-01-13 20:35:00,
2013-01-13 15:40:00,79.4,66.2,30.06,SE,142,4.0,4.0,64,0.00,,,0.01,Wunderground v.1.15,2013-01-13 20:40:00,
2013-01-13 15:45:00,79.4,66.2,30.07,SE,142,4.0,4.0,64,0.00,,,0.01,Wunderground v.1.15,2013-01-13 20:45:00,
2013-01-13 15:50:00,79.3,66.1,30.07,SE,143,4.0,4.0,64,0.00,,,0.01,Wunderground v.1.15,2013-01-13 20:50:00,
2013-01-13 15:55:00,79.2,66.0,30.07,SE,142,3.0,4.0,64,0.00,,,0.01,Wunderground v.1.15,2013-01-13 20:55:00,
2013-01-13 16:00:00,79.1,65.9,30.06,SE,143,3.0,3.0,64,0.00,,,0.01,Wunderground v.1.15,2013-01-13 21:00:00,
2013-01-13 16:05:00,79.1,65.9,30.07,SE,143,2.0,4.0,64,0.00,,,0.01,Wunderground v.1.15,2013-01-13 21:05:00,
2013-01-13 16:15:00,79.1,65.9,30.07,SE,143,3.0,4.0,64,0.00,,,0.01,Wunderground v.1.15,2013-01-13 21:15:00,
2013-01-13 16:20:00,79.0,65.8,30.07,SE,142,4.0,4.0,64,0.00,,,0.01,Wunderground v.1.15,2013-01-13 21:20:00,
2013-01-13 16:25:00,78.9,65.7,30.07,SE,142,3.0,4.0,64,0.00,,,0.01,Wunderground v.1.15,2013-01-13 21:25:00,
2013-01-13 16:30:00,78.8,65.6,30.07,SE,142,2.0,4.0,64,0.00,,,0.01,Wunderground v.1.15,2013-01-13 21:30:00,
2013-01-13 16:35:00,78.7,65.9,30.07,SE,142,3.0,4.0,65,0.00,,,0.01,Wunderground v.1.15,2013-01-13 21:35:00,
2013-01-13 16:40:00,78.6,65.8,30.07,SE,142,2.0,2.0,65,0.00,,,0.01,Wunderground v.1.15,2013-01-13 21:40:00,
2013-01-13 16:45:00,78.4,65.7,30.07,SE,142,3.0,3.0,65,0.00,,,0.01,Wunderground v.1.15,2013-01-13 21:45:00,
2013-01-13 16:50:00,78.2,65.9,30.07,SE,142,3.0,3.0,66,0.00,,,0.01,Wunderground v.1.15,2013-01-13 21:50:00,
2013-01-13 16:55:00,78.0,65.7,30.08,SE,142,2.0,3.0,66,0.00,,,0.01,Wunderground v.1.15,2013-01-13 21:55:00,
2013-01-13 17:00:00,77.7,65.9,30.08,SE,142,1.0,4.0,67,0.00,,,0.01,Wunderground v.1.15,2013-01-13 22:00:00,
2013-01-13 17:05:00,77.5,65.7,30.08,SE,142,1.0,4.0,67,0.00,,,0.01,Wunderground v.1.15,2013-01-13 22:05:00,
2013-01-13 17:10:00,77.2,65.4,30.08,SE,142,2.0,2.0,67,0.00,,,0.01,Wunderground v.1.15,2013-01-13 22:10:00,
2013-01-13 17:15:00,76.9,65.5,30.08,SE,142,2.0,2.0,68,0.00,,,0.01,Wunderground v.1.15,2013-01-13 22:15:00,
2013-01-13 17:20:00,76.7,65.3,30.08,SE,142,1.0,1.0,68,0.00,,,0.01,Wunderground v.1.15,2013-01-13 22:20:00,
2013-01-13 17:25:00,76.4,65.5,30.08,SE,142,0.0,1.0,69,0.00,,,0.01,Wunderground v.1.15,2013-01-13 22:25:00,
2013-01-13 17:30:00,76.1,65.2,30.08,SE,142,0.0,0.0,69,0.00,,,0.01,Wunderground v.1.15,2013-01-13 22:30:00,
2013-01-13 17:35:00,75.8,64.9,30.08,SE,142,0.0,0.0,69,0.00,,,0.01,Wunderground v.1.15,2013-01-13 22:35:00,
2013-01-13 17:40:00,75.5,65.0,30.08,SE,142,0.0,0.0,70,0.00,,,0.01,Wunderground v.1.15,2013-01-13 22:40:00,
2013-01-13 17:45:00,75.1,64.6,30.07,SE,142,1.0,2.0,70,0.00,,,0.01,Wunderground v.1.15,2013-01-13 22:45:00,
2013-01-13 17:50:00,74.8,64.8,30.07,SE,142,2.0,2.0,71,0.00,,,0.01,Wunderground v.1.15,2013-01-13 22:50:00,
2013-01-13 17:55:00,74.5,64.5,30.07,SE,142,2.0,2.0,71,0.00,,,0.01,Wunderground v.1.15,2013-01-13 22:55:00,
2013-01-13 18:00:00,74.3,64.7,30.07,SE,142,2.0,2.0,72,0.00,,,0.01,Wunderground v.1.15,2013-01-13 23:00:00,
2013-01-13 18:05:00,74.1,64.5,30.07,SE,142,2.0,2.0,72,0.00,,,0.01,Wunderground v.1.15,2013-01-13 23:05:00,
2013-01-13 18:10:00,73.9,64.3,30.07,SE,142,1.0,1.0,72,0.00,,,0.01,Wunderground v.1.15,2013-01-13 23:10:00,
2013-01-13 18:15:00,73.7,64.1,30.07,SE,142,0.0,1.0,72,0.00,,,0.01,Wunderground v.1.15,2013-01-13 23:15:00,
2013-01-13 18:20:00,73.5,64.3,30.07,SE,142,0.0,0.0,73,0.00,,,0.01,Wunderground v.1.15,2013-01-13 23:20:00,
2013-01-13 18:25:00,73.1,64.3,30.07,SE,142,0.0,0.0,74,0.00,,,0.01,Wunderground v.1.15,2013-01-13 23:25:00,
2013-01-13 18:30:00,72.8,64.0,30.07,SE,142,0.0,0.0,74,0.00,,,0.01,Wunderground v.1.15,2013-01-13 23:30:00,
2013-01-13 18:35:00,72.5,64.1,30.07,SE,142,0.0,0.0,75,0.00,,,0.01,Wunderground v.1.15,2013-01-13 23:35:00,
2013-01-13 18:40:00,72.1,63.7,30.08,SE,142,1.0,4.0,75,0.00,,,0.01,Wunderground v.1.15,2013-01-13 23:40:00,
2013-01-13 18:45:00,72.1,64.1,30.08,SE,142,2.0,4.0,76,0.00,,,0.01,Wunderground v.1.15,2013-01-13 23:45:00,
2013-01-13 18:50:00,72.6,65.0,30.08,ESE,123,3.0,7.0,77,0.00,,,0.01,Wunderground v.1.15,2013-01-13 23:50:00,
2013-01-13 18:55:00,72.9,65.3,30.08,SE,124,4.0,7.0,77,0.00,,,0.01,Wunderground v.1.15,2013-01-13 23:55:00,
2013-01-13 19:00:00,73.0,65.4,30.08,ESE,119,4.0,4.0,77,0.00,,,0.01,Wunderground v.1.15,2013-01-14 00:00:00,
2013-01-13 19:05:00,73.0,65.7,30.08,ESE,117,4.0,4.0,78,0.00,,,0.01,Wunderground v.1.15,2013-01-14 00:05:00,
2013-01-13 19:15:00,72.7,65.4,30.08,ESE,113,4.0,6.0,78,0.00,,,0.01,Wunderground v.1.15,2013-01-14 00:15:00,
2013-01-13 19:20:00,72.6,65.7,30.08,ESE,113,4.0,5.0,79,0.00,,,0.01,Wunderground v.1.15,2013-01-14 00:20:00,
2013-01-13 19:25:00,72.5,65.6,30.08,ESE,118,4.0,5.0,79,0.00,,,0.01,Wunderground v.1.15,2013-01-14 00:25:00,
2013-01-13 19:30:00,72.4,65.5,30.08,ESE,106,4.0,4.0,79,0.00,,,0.01,Wunderground v.1.15,2013-01-14 00:30:00,
2013-01-13 19:35:00,72.1,65.6,30.08,ESE,109,4.0,4.0,80,0.00,,,0.01,Wunderground v.1.15,2013-01-14 00:35:00,
2013-01-13 19:40:00,72.0,65.5,30.08,ESE,110,4.0,4.0,80,0.00,,,0.01,Wunderground v.1.15,2013-01-14 00:40:00,
2013-01-13 19:45:00,71.9,65.8,30.08,ESE,106,5.0,5.0,81,0.00,,,0.01,Wunderground v.1.15,2013-01-14 00:45:00,
2013-01-13 19:50:00,71.8,65.7,30.08,ESE,110,4.0,4.0,81,0.00,,,0.01,Wunderground v.1.15,2013-01-14 00:50:00,
2013-01-13 19:55:00,71.6,65.8,30.08,ESE,107,4.0,4.0,82,0.00,,,0.01,Wunderground v.1.15,2013-01-14 00:55:00,
2013-01-13 20:00:00,71.3,65.5,30.08,ESE,107,3.0,3.0,82,0.00,,,0.01,Wunderground v.1.15,2013-01-14 01:00:00,
2013-01-13 20:05:00,71.3,65.5,30.08,ESE,109,4.0,4.0,82,0.00,,,0.01,Wunderground v.1.15,2013-01-14 01:05:00,
2013-01-13 20:10:00,71.1,65.7,30.07,ESE,106,5.0,5.0,83,0.00,,,0.01,Wunderground v.1.15,2013-01-14 01:10:00,
2013-01-13 20:15:00,71.0,65.6,30.08,ESE,110,4.0,5.0,83,0.00,,,0.01,Wunderground v.1.15,2013-01-14 01:15:00,
2013-01-13 20:20:00,70.8,65.4,30.08,ESE,111,4.0,4.0,83,0.00,,,0.01,Wunderground v.1.15,2013-01-14 01:20:00,
2013-01-13 20:25:00,70.6,65.5,30.08,ESE,110,3.0,4.0,84,0.00,,,0.01,Wunderground v.1.15,2013-01-14 01:25:00,
2013-01-13 20:30:00,70.4,65.3,30.08,ESE,111,3.0,4.0,84,0.00,,,0.01,Wunderground v.1.15,2013-01-14 01:30:00,
2013-01-13 20:35:00,70.3,65.6,30.07,ESE,111,3.0,4.0,85,0.00,,,0.01,Wunderground v.1.15,2013-01-14 01:35:00,
2013-01-13 20:40:00,70.1,65.4,30.08,ESE,111,3.0,3.0,85,0.00,,,0.01,Wunderground v.1.15,2013-01-14 01:40:00,
2013-01-13 20:45:00,70.0,65.6,30.08,ESE,110,2.0,3.0,86,0.00,,,0.01,Wunderground v.1.15,2013-01-14 01:45:00,
2013-01-13 20:50:00,69.9,65.5,30.08,ESE,111,2.0,4.0,86,0.00,,,0.01,Wunderground v.1.15,2013-01-14 01:50:00,
2013-01-13 21:00:00,69.6,65.6,30.08,ESE,111,3.0,3.0,87,0.00,,,0.01,Wunderground v.1.15,2013-01-14 02:00:00,
2013-01-13 21:05:00,69.5,65.5,30.08,ESE,110,2.0,3.0,87,0.00,,,0.01,Wunderground v.1.15,2013-01-14 02:05:00,
2013-01-13 21:10:00,69.4,65.4,30.08,ESE,111,2.0,2.0,87,0.00,,,0.01,Wunderground v.1.15,2013-01-14 02:10:00,
2013-01-13 21:15:00,69.3,65.3,30.08,ESE,110,2.0,3.0,87,0.00,,,0.01,Wunderground v.1.15,2013-01-14 02:15:00,
2013-01-13 21:20:00,69.2,65.5,30.08,ESE,111,2.0,2.0,88,0.00,,,0.01,Wunderground v.1.15,2013-01-14 02:20:00,
2013-01-13 21:25:00,69.0,65.3,30.08,ESE,110,1.0,2.0,88,0.00,,,0.01,Wunderground v.1.15,2013-01-14 02:25:00,
2013-01-13 21:30:00,68.8,65.1,30.08,ESE,110,1.0,1.0,88,0.00,,,0.01,Wunderground v.1.15,2013-01-14 02:30:00,
2013-01-13 21:35:00,68.6,65.2,30.08,ESE,111,1.0,1.0,89,0.00,,,0.01,Wunderground v.1.15,2013-01-14 02:35:00,
2013-01-13 21:40:00,68.5,65.1,30.08,ESE,111,1.0,1.0,89,0.00,,,0.01,Wunderground v.1.15,2013-01-14 02:40:00,
2013-01-13 21:45:00,68.4,65.0,30.08,ESE,110,1.0,1.0,89,0.00,,,0.01,Wunderground v.1.15,2013-01-14 02:45:00,
2013-01-13 21:50:00,68.3,64.9,30.08,ESE,111,1.0,1.0,89,0.00,,,0.01,Wunderground v.1.15,2013-01-14 02:50:00,
2013-01-13 21:55:00,68.3,65.3,30.08,ESE,110,1.0,2.0,90,0.00,,,0.01,Wunderground v.1.15,2013-01-14 02:55:00,
2013-01-13 22:00:00,68.3,65.3,30.09,ESE,110,1.0,3.0,90,0.00,,,0.01,Wunderground v.1.15,2013-01-14 03:00:00,
2013-01-13 22:05:00,68.3,65.3,30.09,ESE,110,2.0,3.0,90,0.00,,,0.01,Wunderground v.1.15,2013-01-14 03:05:00,
2013-01-13 22:10:00,68.4,65.7,30.09,ESE,110,3.0,3.0,91,0.00,,,0.01,Wunderground v.1.15,2013-01-14 03:10:00,
2013-01-13 22:15:00,68.4,65.7,30.09,ESE,111,3.0,3.0,91,0.00,,,0.01,Wunderground v.1.15,2013-01-14 03:15:00,
2013-01-13 22:20:00,68.4,65.7,30.09,ESE,110,3.0,3.0,91,0.00,,,0.01,Wunderground v.1.15,2013-01-14 03:20:00,
2013-01-13 22:25:00,68.3,65.6,30.10,ESE,111,1.0,3.0,91,0.00,,,0.01,Wunderground v.1.15,2013-01-14 03:25:00,
2013-01-13 22:30:00,68.1,65.1,30.10,ESE,110,0.0,0.0,90,0.00,,,0.01,Wunderground v.1.15,2013-01-14 03:30:00,
2013-01-13 22:35:00,67.9,65.2,30.10,ESE,111,0.0,4.0,91,0.00,,,0.01,Wunderground v.1.15,2013-01-14 03:35:00,
2013-01-13 22:45:00,67.8,65.1,30.10,ESE,111,2.0,2.0,91,0.00,,,0.01,Wunderground v.1.15,2013-01-14 03:45:00,
2013-01-13 22:50:00,67.8,65.1,30.10,ESE,111,2.0,2.0,91,0.00,,,0.01,Wunderground v.1.15,2013-01-14 03:50:00,
2013-01-13 22:55:00,67.8,65.4,30.10,ESE,110,2.0,3.0,92,0.00,,,0.01,Wunderground v.1.15,2013-01-14 03:55:00,
2013-01-13 23:00:00,67.8,65.4,30.10,ESE,110,2.0,2.0,92,0.00,,,0.01,Wunderground v.1.15,2013-01-14 04:00:00,
2013-01-13 23:05:00,67.8,65.4,30.10,ESE,111,2.0,2.0,92,0.00,,,0.01,Wunderground v.1.15,2013-01-14 04:05:00,
2013-01-13 23:15:00,67.8,65.4,30.10,ESE,110,2.0,3.0,92,0.00,,,0.01,Wunderground v.1.15,2013-01-14 04:15:00,
2013-01-13 23:20:00,67.7,65.3,30.10,ESE,111,2.0,2.0,92,0.00,,,0.01,Wunderground v.1.15,2013-01-14 04:20:00,
2013-01-13 23:25:00,67.7,65.3,30.10,ESE,110,2.0,2.0,92,0.00,,,0.01,Wunderground v.1.15,2013-01-14 04:25:00,
2013-01-13 23:30:00,67.6,65.2,30.11,ESE,111,2.0,2.0,92,0.00,,,0.01,Wunderground v.1.15,2013-01-14 04:30:00,
2013-01-13 23:35:00,67.5,65.1,30.11,ESE,110,1.0,2.0,92,0.00,,,0.01,Wunderground v.1.15,2013-01-14 04:35:00,
2013-01-13 23:40:00,67.2,64.8,30.11,ESE,111,0.0,0.0,92,0.00,,,0.01,Wunderground v.1.15,2013-01-14 04:40:00,
2013-01-13 23:45:00,66.9,64.5,30.11,ESE,110,0.0,0.0,92,0.00,,,0.01,Wunderground v.1.15,2013-01-14 04:45:00,
2013-01-13 23:50:00,66.7,64.3,30.11,ESE,111,0.0,0.0,92,0.00,,,0.01,Wunderground v.1.15,2013-01-14 04:50:00,
2013-01-13 23:55:00,66.4,64.3,30.10,ESE,111,0.0,0.0,93,0.00,,,0.01,Wunderground v.1.15,2013-01-14 04:55:00,